QPF
0.06 0.09 0.06 0.06 0.09 0.08 0.09 0.12 0.12 0.11 0.09 0.08 0.09 0.09 0.07 0.06 0.07 0.07 0.05 0.06 0.04 0.04 0.05 0.04 0.04 0.04 0.04 0.04 0.04 0.03 0.03 0.03 0.02 0.02 0.02 0.02 0.02 0.03 0.03 0.03 0.03 0.03 0.03
0.04 0.10 0.10 0.05 0.06 0.06 0.08 0.11 0.13 0.13 0.11 0.10 0.09 0.08 0.07 0.06 0.07 0.08 0.07 0.07 0.06 0.05 0.05 0.05 0.04 0.04 0.04 0.05 0.06 0.06 0.05 0.05 0.04 0.04 0.04 0.03 0.02 0.02 0.03 0.03 0.03 0.03 0.03
0.02 0.09 0.10 0.05 0.04 0.05 0.07 0.09 0.10 0.11 0.12 0.09 0.07 0.06 0.07 0.07 0.07 0.07 0.07 0.08 0.09 0.09 0.09 0.10 0.09 0.07 0.04 0.05 0.05 0.06 0.07 0.07 0.07 0.07 0.06 0.05 0.05 0.05 0.06 0.06 0.06 0.06 0.06
0.03 0.09 0.10 0.05 0.03 0.04 0.05 0.07 0.08 0.09 0.09 0.09 0.07 0.08 0.10 0.10 0.10 0.09 0.08 0.09 0.11 0.11 0.10 0.10 0.10 0.09 0.07 0.06 0.05 0.06 0.07 0.08 0.08 0.09 0.09 0.08 0.08 0.08 0.09 0.10 0.10 0.09 0.08
0.02 0.04 0.05 0.05 0.03 0.03 0.04 0.06 0.06 0.07 0.06 0.08 0.09 0.10 0.11 0.11 0.10 0.11 0.11 0.11 0.12 0.11 0.11 0.11 0.11 0.12 0.11 0.10 0.09 0.08 0.09 0.08 0.08 0.08 0.09 0.09 0.09 0.08 0.09 0.10 0.10 0.10 0.10
0.02 0.02 0.02 0.02 0.02 0.03 0.04 0.05 0.06 0.06 0.07 0.08 0.10 0.11 0.11 0.12 0.14 0.13 0.13 0.15 0.17 0.18 0.17 0.16 0.16 0.16 0.16 0.15 0.15 0.15 0.16 0.16 0.16 0.14 0.13 0.12 0.12 0.11 0.10 0.08 0.08 0.07 0.07
0.02 0.01 0.01 0.01 0.01 0.03 0.03 0.03 0.05 0.05 0.05 0.07 0.09 0.09 0.09 0.09 0.10 0.12 0.14 0.13 0.13 0.14 0.14 0.13 0.13 0.16 0.15 0.14 0.15 0.16 0.15 0.15 0.12 0.10 0.09 0.08 0.07 0.07 0.07 0.07 0.07 0.06 0.07
0.01 0.01 0.00 0.01 0.01 0.01 0.02 0.02 0.02 0.02 0.02 0.04 0.06 0.06 0.06 0.06 0.07 0.08 0.11 0.12 0.12 0.12 0.12 0.12 0.14 0.14 0.13 0.12 0.12 0.11 0.08 0.07 0.05 0.04 0.04 0.04 0.04 0.04 0.05 0.06 0.06 0.06 0.06
0.01 0.01 0.01 0.00 0.00 0.00 0.01 0.01 0.02 0.02 0.02 0.02 0.04 0.07 0.08 0.10 0.11 0.12 0.13 0.14 0.16 0.18 0.18 0.17 0.16 0.15 0.16 0.13 0.10 0.08 0.06 0.06 0.05 0.05 0.05 0.04 0.04 0.04 0.06 0.06 0.07 0.07 0.08
0.01 0.01 0.01 0.01 0.01 0.01 0.01 0.01 0.02 0.02 0.02 0.02 0.02 0.04 0.06 0.07 0.09 0.10 0.11 0.11 0.12 0.12 0.13 0.15 0.16 0.15 0.15 0.14 0.13 0.13 0.11 0.09 0.07 0.06 0.06 0.05 0.04 0.04 0.04 0.04 0.05 0.06 0.07
0.02 0.01 0.01 0.01 0.01 0.02 0.02 0.03 0.03 0.03 0.03 0.03 0.04 0.05 0.06 0.07 0.09 0.09 0.09 0.08 0.08 0.09 0.09 0.09 0.11 0.13 0.13 0.12 0.10 0.09 0.10 0.10 0.09 0.09 0.08 0.07 0.06 0.06 0.06 0.06 0.06 0.07 0.07
0.01 0.02 0.02 0.01 0.02 0.02 0.02 0.02 0.03 0.04 0.04 0.04 0.05 0.06 0.06 0.07 0.07 0.08 0.08 0.08 0.08 0.08 0.07 0.07 0.08 0.10 0.09 0.08 0.06 0.06 0.07 0.08 0.08 0.09 0.09 0.09 0.09 0.09 0.08 0.08 0.07 0.06 0.05
0.03 0.02 0.03 0.03 0.03 0.03 0.03 0.02 0.02 0.03 0.03 0.03 0.03 0.03 0.03 0.03 0.05 0.06 0.06 0.06 0.06 0.05 0.05 0.06 0.07 0.07 0.06 0.06 0.06 0.07 0.07 0.07 0.07 0.07 0.07 0.07 0.07 0.06 0.05 0.04 0.03 0.03 0.02
0.02 0.02 0.03 0.03 0.03 0.03 0.04 0.03 0.02 0.02 0.02 0.02 0.02 0.03 0.03 0.03 0.03 0.03 0.04 0.04 0.04 0.04 0.05 0.06 0.06 0.06 0.06 0.06 0.06 0.06 0.05 0.05 0.05 0.05 0.05 0.05 0.04 0.03 0.02 0.02 0.01 0.01 0.01
0.04 0.03 0.03 0.03 0.03 0.03 0.04 0.04 0.03 0.02 0.03 0.03 0.04 0.04 0.04 0.03 0.03 0.04 0.05 0.06 0.07 0.07 0.07 0.08 0.08 0.08 0.07 0.06 0.06 0.05 0.05 0.04 0.04 0.04 0.03 0.03 0.02 0.02 0.01 0.01 0.00 0.00 0.00
0.04 0.05 0.04 0.04 0.03 0.03 0.03 0.03 0.04 0.04 0.04 0.04 0.04 0.04 0.03 0.03 0.04 0.05 0.07 0.09 0.10 0.10 0.09 0.09 0.09 0.09 0.08 0.08 0.08 0.07 0.06 0.04 0.03 0.02 0.02 0.01 0.01 0.01 0.00 0.00 0.00 0.00 0.00
0.03 0.03 0.03 0.02 0.02 0.02 0.02 0.03 0.04 0.04 0.04 0.04 0.04 0.04 0.04 0.05 0.05 0.05 0.06 0.07 0.08 0.08 0.07 0.08 0.09 0.09 0.09 0.09 0.08 0.07 0.05 0.04 0.02 0.02 0.01 0.01 0.01 0.00 0.00 0.00 0.00 0.00 0.00
0.03 0.03 0.02 0.02 0.02 0.02 0.02 0.02 0.02 0.04 0.05 0.04 0.05 0.06 0.06 0.06 0.06 0.06 0.07 0.07 0.06 0.06 0.05 0.05 0.05 0.06 0.06 0.05 0.05 0.04 0.03 0.03 0.02 0.01 0.01 0.01 0.00 0.00 0.00 0.00 0.00 0.00 0.00
0.02 0.03 0.02 0.01 0.02 0.02 0.03 0.03 0.03 0.04 0.05 0.07 0.07 0.07 0.07 0.05 0.05 0.05 0.05 0.04 0.04 0.05 0.05 0.05 0.05 0.05 0.04 0.04 0.03 0.03 0.02 0.02 0.01 0.01 0.00 0.00 0.00 0.00 0.00 0.00 0.00 0.00 0.00
0.03 0.03 0.03 0.02 0.01 0.01 0.02 0.03 0.05 0.05 0.05 0.06 0.07 0.07 0.07 0.06 0.04 0.04 0.04 0.04 0.05 0.05 0.05 0.06 0.05 0.04 0.04 0.03 0.02 0.02 0.01 0.01 0.00 0.00 0.00 0.00 0.00 0.00 0.00 0.00 0.00 0.00 0.00
0.03 0.03 0.02 0.02 0.01 0.02 0.02 0.03 0.05 0.07 0.07 0.07 0.07 0.08 0.09 0.08 0.08 0.07 0.07 0.06 0.06 0.06 0.06 0.05 0.04 0.03 0.03 0.02 0.02 0.01 0.01 0.00 0.00 0.00 0.00 0.00 0.00 0.00 0.00 0.00 0.00 0.00 0.00
0.02 0.02 0.02 0.03 0.04 0.05 0.06 0.06 0.06 0.08 0.09 0.08 0.09 0.11 0.12 0.11 0.11 0.10 0.09 0.07 0.06 0.05 0.05 0.04 0.04 0.03 0.03 0.02 0.01 0.01 0.01 0.00 0.00 0.00 0.00 0.00 0.00 0.00 0.00 0.00 0.00 0.00 0.00
0.02 0.03 0.04 0.06 0.07 0.08 0.06 0.05 0.05 0.06 0.07 0.07 0.08 0.09 0.09 0.08 0.08 0.08 0.09 0.08 0.07 0.06 0.05 0.05 0.04 0.03 0.02 0.01 0.01 0.00 0.00 0.00 0.00 0.00 0.00 0.00 0.00 0.00 0.00 0.00 0.00 0.00 0.00
0.01 0.01 0.02 0.03 0.03 0.03 0.03 0.02 0.02 0.03 0.04 0.04 0.05 0.05 0.06 0.06 0.06 0.06 0.06 0.06 0.05 0.05 0.04 0.03 0.02 0.01 0.01 0.00 0.00 0.00 0.00 0.00 0.00 0.00 0.00 0.00 0.00 0.00 0.00 0.00 0.00 0.00 0.00
0.00 0.01 0.01 0.01 0.01 0.01 0.01 0.02 0.02 0.02 0.02 0.02 0.02 0.02 0.02 0.03 0.03 0.03 0.03 0.02 0.02 0.01 0.01 0.01 0.01 0.00 0.00 0.00 0.00 0.00 0.00 0.00 0.00 0.00 0.00 0.00 0.00 0.00 0.00 0.00 0.00 0.00 0.00
0.00 0.00 0.01 0.01 0.01 0.01 0.01 0.01 0.01 0.01 0.01 0.01 0.01 0.01 0.01 0.01 0.01 0.01 0.01 0.01 0.01 0.01 0.01 0.00 0.00 0.00 0.00 0.00 0.00 0.00 0.00 0.00 0.00 0.00 0.00 0.00 0.00 0.00 0.00 0.00 0.00 0.00 0.00
MSLP
1013.38 1013.69 1014.05 1014.42 1014.74 1014.96 1015.07 1015.06 1014.95 1014.77 1014.58 1014.39 1014.25 1014.19 1014.20 1014.29 1014.47 1014.72 1015.02 1015.38 1015.77 1016.18 1016.59 1017.00 1017.39 1017.75 1018.10 1018.45 1018.79 1019.15 1019.53 1019.93 1020.34 1020.74 1021.11 1021.43 1021.70 1021.90 1022.06 1022.18 1022.31 1022.47 1022.68
1013.54 1013.84 1014.19 1014.54 1014.82 1015.00 1015.06 1014.97 1014.78 1014.50 1014.17 1013.84 1013.55 1013.34 1013.22 1013.21 1013.32 1013.53 1013.83 1014.22 1014.66 1015.13 1015.61 1016.08 1016.54 1016.98 1017.41 1017.83 1018.27 1018.73 1019.22 1019.74 1020.27 1020.80 1021.29 1021.72 1022.08 1022.36 1022.57 1022.73 1022.88 1023.05 1023.26
1013.92 1014.23 1014.56 1014.87 1015.10 1015.20 1015.17 1014.99 1014.68 1014.27 1013.79 1013.31 1012.87 1012.51 1012.26 1012.14 1012.16 1012.33 1012.62 1013.03 1013.51 1014.05 1014.61 1015.18 1015.73 1016.27 1016.79 1017.32 1017.86 1018.43 1019.04 1019.67 1020.32 1020.95 1021.55 1022.07 1022.52 1022.86 1023.13 1023.33 1023.51 1023.69 1023.91
1014.47 1014.79 1015.10 1015.36 1015.51 1015.53 1015.39 1015.10 1014.66 1014.12 1013.51 1012.89 1012.30 1011.80 1011.43 1011.20 1011.15 1011.27 1011.55 1011.97 1012.50 1013.10 1013.75 1014.41 1015.07 1015.71 1016.35 1016.99 1017.64 1018.32 1019.03 1019.76 1020.50 1021.22 1021.90 1022.50 1023.00 1023.40 1023.70 1023.94 1024.14 1024.34 1024.56
1015.11 1015.44 1015.73 1015.93 1016.01 1015.93 1015.69 1015.28 1014.74 1014.08 1013.37 1012.63 1011.94 1011.34 1010.87 1010.57 1010.45 1010.53 1010.79 1011.21 1011.77 1012.42 1013.14 1013.89 1014.65 1015.41 1016.15 1016.90 1017.66 1018.44 1019.23 1020.04 1020.85 1021.62 1022.34 1022.98 1023.51 1023.94 1024.27 1024.53 1024.74 1024.94 1025.16
1015.75 1016.09 1016.35 1016.50 1016.50 1016.34 1016.01 1015.53 1014.91 1014.20 1013.42 1012.63 1011.89 1011.24 1010.71 1010.36 1010.20 1010.24 1010.47 1010.89 1011.46 1012.15 1012.92 1013.74 1014.58 1015.42 1016.26 1017.10 1017.95 1018.80 1019.65 1020.51 1021.35 1022.14 1022.87 1023.51 1024.05 1024.48 1024.81 1025.07 1025.28 1025.48 1025.69
1016.30 1016.65 1016.89 1017.00 1016.94 1016.73 1016.35 1015.83 1015.20 1014.48 1013.71 1012.93 1012.19 1011.54 1011.02 1010.65 1010.46 1010.48 1010.69 1011.08 1011.65 1012.34 1013.13 1013.98 1014.87 1015.77 1016.68 1017.58 1018.48 1019.37 1020.26 1021.13 1021.96 1022.75 1023.46 1024.07 1024.58 1024.99 1025.30 1025.54 1025.74 1025.92 1026.12
1016.70 1017.06 1017.29 1017.37 1017.30 1017.07 1016.69 1016.20 1015.60 1014.94 1014.24 1013.54 1012.87 1012.28 1011.80 1011.45 1011.26 1011.26 1011.44 1011.80 1012.33 1013.00 1013.77 1014.62 1015.52 1016.44 1017.37 1018.29 1019.21 1020.11 1020.99 1021.84 1022.65 1023.40 1024.06 1024.63 1025.10 1025.47 1025.74 1025.96 1026.13 1026.29 1026.46
1016.93 1017.31 1017.54 1017.63 1017.57 1017.37 1017.05 1016.63 1016.13 1015.58 1015.01 1014.44 1013.89 1013.39 1012.98 1012.68 1012.51 1012.50 1012.65 1012.96 1013.44 1014.05 1014.77 1015.58 1016.44 1017.34 1018.25 1019.16 1020.05 1020.93 1021.78 1022.59 1023.35 1024.04 1024.65 1025.17 1025.59 1025.91 1026.15 1026.33 1026.48 1026.61 1026.75
1017.02 1017.42 1017.69 1017.81 1017.79 1017.66 1017.43 1017.13 1016.78 1016.38 1015.97 1015.55 1015.15 1014.78 1014.46 1014.21 1014.07 1014.05 1014.17 1014.43 1014.84 1015.37 1016.02 1016.75 1017.55 1018.38 1019.24 1020.09 1020.94 1021.76 1022.55 1023.31 1024.01 1024.64 1025.20 1025.66 1026.04 1026.32 1026.54 1026.69 1026.81 1026.93 1027.04
1017.02 1017.46 1017.77 1017.95 1018.01 1017.98 1017.88 1017.72 1017.52 1017.30 1017.06 1016.81 1016.55 1016.30 1016.08 1015.90 1015.78 1015.76 1015.84 1016.05 1016.38 1016.83 1017.39 1018.03 1018.74 1019.48 1020.26 1021.03 1021.80 1022.55 1023.28 1023.96 1024.60 1025.18 1025.69 1026.11 1026.46 1026.73 1026.93 1027.07 1027.18 1027.27 1027.37
1017.00 1017.48 1017.84 1018.09 1018.25 1018.34 1018.37 1018.37 1018.34 1018.28 1018.21 1018.11 1017.98 1017.85 1017.71 1017.58 1017.49 1017.47 1017.52 1017.68 1017.94 1018.31 1018.77 1019.32 1019.93 1020.58 1021.25 1021.94 1022.62 1023.29 1023.93 1024.55 1025.13 1025.66 1026.13 1026.53 1026.87 1027.13 1027.33 1027.48 1027.59 1027.68 1027.76
1016.99 1017.51 1017.94 1018.28 1018.54 1018.75 1018.91 1019.05 1019.17 1019.26 1019.32 1019.35 1019.33 1019.29 1019.22 1019.14 1019.08 1019.05 1019.09 1019.20 1019.41 1019.71 1020.10 1020.56 1021.07 1021.63 1022.21 1022.80 1023.39 1023.97 1024.53 1025.08 1025.61 1026.10 1026.54 1026.94 1027.28 1027.55 1027.77 1027.93 1028.05 1028.14 1028.21
1017.01 1017.58 1018.07 1018.49 1018.85 1019.17 1019.45 1019.71 1019.95 1020.16 1020.33 1020.45 1020.52 1020.54 1020.52 1020.48 1020.44 1020.43 1020.46 1020.56 1020.73 1020.99 1021.32 1021.71 1022.15 1022.62 1023.11 1023.61 1024.11 1024.61 1025.11 1025.59 1026.07 1026.53 1026.95 1027.34 1027.69 1027.98 1028.22 1028.40 1028.54 1028.63 1028.69
1017.08 1017.68 1018.22 1018.71 1019.15 1019.56 1019.94 1020.30 1020.63 1020.92 1021.16 1021.35 1021.47 1021.54 1021.56 1021.56 1021.55 1021.55 1021.60 1021.70 1021.87 1022.11 1022.41 1022.75 1023.14 1023.55 1023.98 1024.40 1024.83 1025.25 1025.68 1026.11 1026.54 1026.96 1027.37 1027.76 1028.11 1028.42 1028.68 1028.87 1029.02 1029.11 1029.16
1017.15 1017.77 1018.35 1018.89 1019.40 1019.88 1020.33 1020.76 1021.15 1021.50 1021.79 1022.02 1022.18 1022.28 1022.33 1022.36 1022.38 1022.42 1022.49 1022.62 1022.81 1023.05 1023.35 1023.68 1024.04 1024.42 1024.79 1025.16 1025.53 1025.90 1026.27 1026.64 1027.03 1027.42 1027.80 1028.18 1028.53 1028.84 1029.10 1029.31 1029.45 1029.54 1029.57
1017.21 1017.84 1018.43 1019.01 1019.56 1020.09 1020.60 1021.07 1021.51 1021.89 1022.21 1022.46 1022.65 1022.78 1022.86 1022.92 1022.98 1023.06 1023.18 1023.34 1023.56 1023.83 1024.15 1024.48 1024.84 1025.19 1025.54 1025.88 1026.21 1026.53 1026.85 1027.18 1027.53 1027.88 1028.24 1028.59 1028.92 1029.22 1029.48 1029.67 1029.81 1029.88 1029.89
1017.25 1017.87 1018.47 1019.06 1019.64 1020.20 1020.73 1021.24 1021.70 1022.10 1022.44 1022.72 1022.93 1023.08 1023.20 1023.30 1023.40 1023.52 1023.68 1023.89 1024.15 1024.45 1024.79 1025.15 1025.51 1025.86 1026.20 1026.52 1026.83 1027.12 1027.41 1027.71 1028.01 1028.33 1028.65 1028.97 1029.28 1029.55 1029.78 1029.96 1030.07 1030.12 1030.11
1017.28 1017.87 1018.46 1019.05 1019.64 1020.22 1020.77 1021.29 1021.77 1022.19 1022.55 1022.84 1023.07 1023.25 1023.40 1023.53 1023.67 1023.84 1024.04 1024.29 1024.58 1024.92 1025.28 1025.66 1026.04 1026.40 1026.74 1027.06 1027.36 1027.64 1027.91 1028.18 1028.46 1028.74 1029.02 1029.31 1029.57 1029.81 1030.01 1030.16 1030.24 1030.27 1030.24
1017.32 1017.88 1018.45 1019.03 1019.62 1020.20 1020.76 1021.29 1021.78 1022.21 1022.58 1022.90 1023.15 1023.35 1023.53 1023.69 1023.87 1024.06 1024.29 1024.57 1024.89 1025.24 1025.62 1026.02 1026.41 1026.78 1027.14 1027.46 1027.76 1028.04 1028.31 1028.57 1028.82 1029.08 1029.33 1029.57 1029.80 1030.00 1030.16 1030.27 1030.34 1030.34 1030.29
1017.41 1017.93 1018.48 1019.04 1019.61 1020.18 1020.74 1021.27 1021.76 1022.21 1022.59 1022.92 1023.20 1023.43 1023.63 1023.82 1024.01 1024.23 1024.47 1024.76 1025.09 1025.45 1025.83 1026.23 1026.63 1027.01 1027.38 1027.72 1028.03 1028.32 1028.59 1028.85 1029.09 1029.32 1029.55 1029.76 1029.95 1030.11 1030.24 1030.32 1030.36 1030.35 1030.28
1017.57 1018.06 1018.57 1019.10 1019.65 1020.20 1020.75 1021.28 1021.77 1022.21 1022.61 1022.96 1023.25 1023.50 1023.72 1023.93 1024.14 1024.36 1024.61 1024.89 1025.21 1025.56 1025.94 1026.33 1026.72 1027.11 1027.49 1027.84 1028.17 1028.47 1028.75 1029.01 1029.25 1029.48 1029.68 1029.87 1030.03 1030.16 1030.25 1030.31 1030.33 1030.30 1030.23
1017.81 1018.25 1018.73 1019.23 1019.75 1020.28 1020.80 1021.31 1021.79 1022.24 1022.64 1022.99 1023.30 1023.57 1023.81 1024.02 1024.24 1024.46 1024.71 1024.98 1025.28 1025.61 1025.96 1026.34 1026.72 1027.10 1027.48 1027.84 1028.18 1028.50 1028.80 1029.07 1029.32 1029.54 1029.73 1029.89 1030.03 1030.13 1030.20 1030.24 1030.24 1030.20 1030.12
1018.10 1018.50 1018.94 1019.40 1019.89 1020.38 1020.87 1021.35 1021.82 1022.25 1022.65 1023.01 1023.33 1023.61 1023.86 1024.08 1024.31 1024.53 1024.76 1025.01 1025.29 1025.60 1025.93 1026.28 1026.64 1027.02 1027.39 1027.76 1028.11 1028.44 1028.75 1029.03 1029.27 1029.49 1029.67 1029.82 1029.94 1030.02 1030.07 1030.08 1030.06 1030.01 1029.92
1018.40 1018.77 1019.17 1019.59 1020.02 1020.47 1020.92 1021.37 1021.80 1022.22 1022.60 1022.96 1023.28 1023.57 1023.83 1024.08 1024.30 1024.53 1024.75 1024.99 1025.25 1025.53 1025.84 1026.16 1026.51 1026.87 1027.23 1027.59 1027.95 1028.28 1028.60 1028.88 1029.13 1029.35 1029.52 1029.66 1029.75 1029.81 1029.84 1029.83 1029.79 1029.72 1029.62
1018.68 1019.02 1019.37 1019.74 1020.12 1020.51 1020.91 1021.31 1021.71 1022.09 1022.46 1022.81 1023.13 1023.43 1023.70 1023.96 1024.20 1024.43 1024.66 1024.89 1025.14 1025.40 1025.68 1025.99 1026.31 1026.65 1027.00 1027.35 1027.70 1028.03 1028.35 1028.63 1028.88 1029.08 1029.25 1029.37 1029.45 1029.49 1029.49 1029.46 1029.39 1029.30 1029.17
Thickness
5744 5741 5739 5737 5736 5734 5732 5731 5730 5728 5727 5726 5724 5723 5723 5722 5721 5719 5718 5717 5715 5713 5712 5710 5708 5707 5706 5704 5702 5700 5698 5695 5689 5686 5684 5683 5682 5681 5680 5678 5676 5674 5671
5742 5740 5737 5736 5735 5733 5732 5730 5729 5727 5726 5724 5723 5721 5720 5720 5718 5717 5715 5714 5712 5710 5708 5706 5704 5703 5701 5699 5698 5696 5694 5691 5687 5681 5677 5675 5674 5673 5671 5670 5667 5665 5662
5741 5738 5736 5734 5733 5731 5730 5729 5728 5726 5724 5723 5721 5719 5718 5717 5715 5714 5712 5711 5709 5707 5705 5702 5700 5698 5696 5695 5693 5691 5689 5687 5683 5678 5672 5668 5665 5664 5662 5659 5656 5654 5652
5740 5737 5734 5732 5731 5730 5728 5727 5726 5724 5722 5720 5719 5717 5715 5713 5711 5710 5708 5707 5705 5703 5700 5698 5697 5695 5692 5690 5688 5685 5683 5679 5675 5671 5666 5661 5657 5655 5653 5649 5645 5642 5639
5737 5733 5731 5729 5729 5727 5725 5724 5722 5720 5718 5716 5714 5713 5711 5709 5707 5705 5704 5702 5700 5697 5694 5692 5691 5689 5687 5686 5683 5680 5676 5672 5667 5662 5657 5652 5649 5646 5643 5640 5635 5631 5626
5733 5730 5728 5726 5725 5723 5721 5720 5718 5716 5714 5712 5710 5708 5706 5705 5703 5701 5699 5696 5693 5690 5687 5684 5682 5680 5679 5677 5674 5671 5669 5664 5659 5654 5649 5645 5641 5637 5634 5631 5626 5622 5616
5729 5726 5723 5722 5719 5717 5716 5714 5712 5710 5709 5707 5704 5702 5700 5698 5697 5695 5693 5690 5686 5683 5681 5678 5675 5672 5670 5667 5663 5660 5657 5654 5651 5648 5642 5637 5632 5629 5625 5620 5615 5611 5604
5724 5721 5719 5717 5714 5712 5710 5708 5706 5704 5702 5700 5698 5696 5694 5691 5690 5688 5685 5682 5678 5675 5672 5670 5666 5662 5660 5658 5653 5648 5643 5640 5639 5636 5631 5626 5622 5618 5615 5610 5604 5597 5591
5719 5716 5714 5712 5709 5707 5704 5702 5700 5698 5695 5693 5691 5688 5686 5683 5681 5680 5678 5674 5669 5665 5661 5659 5656 5653 5649 5647 5643 5636 5630 5625 5622 5620 5616 5612 5608 5605 5601 5597 5592 5588 5580
5714 5711 5709 5706 5703 5701 5698 5695 5693 5690 5687 5685 5682 5680 5678 5675 5672 5671 5670 5666 5661 5655 5651 5648 5645 5642 5638 5635 5631 5626 5619 5612 5609 5606 5601 5597 5593 5589 5586 5582 5578 5573 5567
5709 5706 5702 5699 5697 5693 5690 5688 5685 5682 5679 5676 5673 5670 5668 5666 5663 5662 5660 5657 5652 5646 5641 5636 5632 5630 5626 5623 5620 5615 5608 5601 5596 5592 5587 5582 5578 5574 5569 5565 5561 5557 5552
5703 5699 5695 5692 5689 5686 5683 5680 5677 5674 5671 5667 5664 5660 5657 5655 5653 5650 5648 5646 5643 5638 5632 5627 5622 5618 5614 5611 5606 5601 5595 5590 5584 5579 5573 5568 5563 5558 5553 5549 5545 5541 5536
5695 5692 5688 5684 5681 5678 5675 5672 5669 5666 5663 5659 5655 5651 5647 5644 5641 5639 5637 5634 5631 5627 5621 5616 5611 5607 5602 5598 5593 5588 5584 5578 5573 5567 5561 5555 5549 5544 5540 5536 5531 5527 5522
5688 5683 5680 5676 5672 5669 5666 5663 5660 5657 5654 5650 5647 5642 5638 5634 5631 5629 5626 5623 5619 5615 5609 5604 5599 5594 5590 5584 5579 5575 5571 5566 5560 5554 5548 5542 5537 5533 5528 5524 5519 5514 5510
5679 5675 5671 5667 5663 5658 5654 5651 5649 5647 5645 5642 5639 5635 5631 5627 5623 5621 5618 5613 5609 5605 5599 5593 5587 5582 5577 5572 5566 5561 5557 5553 5547 5541 5536 5531 5526 5521 5515 5510 5506 5501 5497
5669 5665 5661 5657 5654 5649 5645 5639 5635 5634 5633 5631 5629 5626 5622 5619 5614 5611 5607 5603 5598 5594 5590 5583 5576 5571 5566 5561 5555 5549 5544 5539 5534 5530 5525 5520 5515 5510 5504 5499 5494 5490 5485
5660 5656 5652 5648 5644 5640 5636 5632 5627 5622 5620 5618 5616 5614 5611 5607 5604 5600 5596 5591 5586 5583 5578 5572 5566 5560 5555 5549 5544 5539 5533 5527 5523 5518 5514 5509 5503 5498 5493 5488 5483 5479 5474
5649 5646 5642 5638 5634 5631 5627 5623 5619 5616 5611 5605 5601 5600 5598 5595 5592 5589 5585 5580 5573 5569 5566 5560 5555 5549 5544 5539 5533 5528 5522 5517 5512 5507 5503 5498 5493 5488 5483 5478 5473 5469 5465
5638 5634 5630 5627 5623 5620 5616 5613 5609 5605 5601 5595 5591 5587 5584 5582 5580 5576 5573 5570 5564 5558 5553 5548 5543 5539 5534 5528 5523 5517 5512 5507 5502 5497 5492 5487 5483 5478 5474 5469 5464 5459 5456
5626 5623 5620 5616 5612 5609 5605 5602 5598 5594 5590 5586 5582 5578 5574 5572 5568 5564 5561 5557 5553 5548 5543 5538 5533 5528 5523 5518 5513 5508 5502 5497 5492 5488 5483 5478 5474 5469 5465 5461 5457 5453 5450
5615 5612 5609 5605 5601 5598 5595 5592 5588 5585 5580 5576 5572 5569 5566 5563 5559 5554 5550 5546 5542 5538 5533 5528 5523 5518 5513 5508 5504 5499 5494 5489 5484 5480 5475 5470 5466 5461 5457 5453 5450 5447 5444
5604 5600 5597 5594 5591 5587 5584 5581 5578 5575 5571 5567 5563 5558 5555 5553 5549 5544 5540 5536 5532 5528 5524 5519 5515 5510 5505 5501 5496 5492 5487 5482 5477 5472 5468 5463 5459 5455 5451 5448 5445 5442 5439
5593 5589 5586 5583 5580 5576 5573 5570 5567 5565 5561 5558 5554 5550 5546 5543 5540 5536 5532 5528 5523 5519 5515 5510 5506 5502 5497 5493 5489 5485 5481 5476 5471 5467 5462 5458 5453 5450 5446 5443 5440 5437 5435
5582 5579 5576 5572 5569 5566 5563 5560 5557 5555 5552 5548 5545 5541 5538 5534 5531 5527 5523 5519 5515 5511 5507 5503 5499 5495 5491 5487 5482 5478 5474 5470 5466 5461 5457 5452 5449 5445 5442 5438 5436 5433 5430
5572 5569 5566 5563 5560 5557 5554 5551 5548 5546 5543 5539 5536 5533 5529 5526 5522 5519 5515 5512 5508 5504 5501 5497 5493 5489 5485 5481 5477 5473 5469 5465 5460 5456 5451 5447 5444 5441 5437 5435 5432 5429 5427
5562 5560 5557 5554 5552 5549 5546 5543 5540 5537 5534 5532 5528 5525 5522 5519 5515 5512 5508 5505 5501 5498 5494 5490 5487 5483 5479 5475 5471 5467 5464 5460 5456 5451 5447 5443 5440 5437 5434 5431 5429 5426 5424